Погода в Конты-Вроцлавске

Польша     51°01′33″N   16°46′00″E
темп.,
°C
ветер,
м/с
пор.,
м/с
влажн.,
%
обл.,
%
осадки,
мм/ч
давл.,
гПа
погр.,
м
2 марта, вт
вт201:00+2юв11900 0.0 103622
04:00+2ю11880 0.0 103522
07:00+2з01850 0.0 103522
10:00+8сз23630 0.0 1035264
13:00+12сз23520 0.0 1034525
16:00+12сз12550 0.0 1033464
19:00+7з11680 0.0 103422
22:00+6ююз11750 0.0 103422
3 марта, ср
ср301:00+5вюв12800 0.0 103422
04:00+4ююв12820 0.0 103222
07:00+4ююз11760 0.0 103122
10:00+10зюз12490 0.0 1030268
13:00+14юз233931 0.0 1028747
16:00+13зюз35480 0.0 1025488
19:00+7юз34710 0.0 102582
22:00+6юз46710 0.0 1023104
4 марта, чт
чт401:00+6юз347019 0.0 102266
04:00+5зюз347756 0.0 101982
07:00+5зюз338165 0.0 101858
10:00+10з486998 0.0 1016798
13:00+12зсз686598 0.0 10151125
16:00+10зсз7974100 0.3 1012982
19:00+8зсз4882100 1.0 1012676
22:00+7сз4779100 0.8 1012734
5 марта, пт
пт501:00+4ссз3593100 0.9 1013396
04:00+3сз4796100 1.0 1013418
07:000ссв61093100 2.8 1016689
10:00+1с7867100 0.6 10191197
13:00+3с685267 0.8 10211833
16:00+3ссз585160 0.2 10221747
19:000сз386878 0.6 1025306
22:00−1сз5117165 0.1 1027462
6 марта, сб
сб601:00−2сз497959 0.1 1029473
04:00−2зсз47770 0.0 1031302
07:00−2зсз59720 0.0 1032473
10:00+1сз56550 0.1 10331262
13:00+3сз563944 0.1 10331980
16:00+4з69410 0.0 10271699
19:00+1зюз411682 0.0 1027347
22:000з5137350 0.0 1028503